This demonstration page uses our WeatherBlox Daily Observations layout. Learn more.

Left ArrowRight Arrow

Hourly Observations for February 14, 2020

Temp ( °F °C ) Dew Point ( °F °C ) Humidity (%) Winds ( mph kmh ) Pressure ( in mb ) Visibility ( mi km ) Precip ( " mm )
12:53 am 00:53 Cloudy 31 -0.6 22 -5.6 69 69 WSW 17 28 29.64 1004 10 16 0.00 0.00
1:53 am 01:53 Cloudy 32 0 22 -5.6 66 66 SW 16 26 29.61 1003 10 16 0.00 0.00
2:53 am 02:53 Clear 35 1.7 22 -5.6 59 59 SW 21 33 29.59 1002 10 16 0.00 0.00
3:53 am 03:53 Clear 31 -0.6 21 -6.1 67 67 SW 18 30 29.57 1001 10 16 0.00 0.00
4:53 am 04:53 Clear 30 -1.1 22 -5.6 72 72 SW 17 28 29.56 1001 10 16 0.00 0.00
5:53 am 05:53 Clear 29 -1.7 22 -5.6 75 75 WSW 13 20 29.58 1002 10 16 0.00 0.00
6:53 am 06:53 Clear 31 -0.6 23 -5 72 72 SW 20 31 29.59 1002 10 16 0.00 0.00
7:53 am 07:53 Sunny 31 -0.6 24 -4.4 76 76 SSW 17 28 29.61 1003 10 16 0.00 0.00
8:53 am 08:53 Cloudy 32 0 25 -3.9 75 75 SW 14 22 29.63 1003 10 16 0.00 0.00
9:53 am 09:53 Mostly Cloudy 33 0.6 25 -3.9 72 72 SW 15 24 29.66 1004 10 16 0.00 0.00
10:53 am 10:53 Sunny 37 2.8 26 -3.3 65 65 W 22 35 29.66 1004 10 16 0.00 0.00
11:53 am 11:53 Cloudy 36 2.2 22 -5.6 57 57 WNW 38 61 29.69 1005 10 16 0.00 0.00
12:38 pm 12:38 Mostly Cloudy 34 1 27 -3 75 75 WNW 32 52 29.73 1007 10 16 0.00 0.00
12:53 pm 12:53 Cloudy 34 1.1 27 -2.8 76 76 NW 31 50 29.73 1007 9 14 0.00 0.00
1:03 pm 13:03 Cloudy 34 1.1 27 -2.8 76 76 NW 28 44 29.77 1008 10 16 0.00 0.00
1:25 pm 13:25 Windy with Snow Likely 32 0 27 -2.8 82 82 NW 22 35 29.81 1009 2 2 0.00 0.00
1:30 pm 13:30 Windy with Snow Likely 32 0 27 -2.8 82 82 WNW 21 33 29.81 1009 1 1 0.00 0.00
1:41 pm 13:41 Cloudy with Snow 31 -0.6 29 -1.7 92 92 WNW 16 26 29.83 1010 1 1 0.00 0.00
1:53 pm 13:53 Cloudy with Light Snow 31 -0.6 29 -1.7 92 92 WNW 16 26 29.80 1009 1 1 0.00 0.00
2:12 pm 14:12 Cloudy with Light Snow 31 -0.6 29 -1.7 92 92 WNW 16 26 29.85 1011 1 1 0.01 0.25
2:19 pm 14:19 Cloudy with Light Snow 31 -0.6 29 -1.7 92 92 WNW 16 26 29.85 1011 1 1 0.01 0.25
2:37 pm 14:37 Cloudy with Light Snow 31 -0.6 29 -1.7 92 92 NW 12 19 29.86 1011 2 2 0.01 0.25
2:40 pm 14:40 Cloudy with Light Snow 32 0 28 -2 87 87 NW 10 17 29.85 1011 3 5 0.00 0.00
2:51 pm 14:51 Cloudy 34 1 28 -2 81 81 WNW 10 17 29.84 1010 9 14 0.01 0.25
2:53 pm 14:53 Cloudy 33 0.6 29 -1.7 85 85 NW 12 19 29.81 1010 10 16 0.01 0.25
3:53 pm 15:53 Sunny 34 1.1 25 -3.9 70 70 WNW 8 13 29.84 1010 10 16 0.00 0.00
4:53 pm 16:53 Sunny 34 1.1 25 -3.9 70 70 W 3 6 29.85 1011 10 16 0.00 0.00
5:53 pm 17:53 Clear 28 -2.2 23 -5 81 81 SSW 5 7 29.88 1012 10 16 0.00 0.00
6:53 pm 18:53 Mostly Cloudy 25 -3.9 22 -5.6 88 88 E 5 7 29.91 1013 10 16 0.00 0.00
7:53 pm 19:53 Clear 22 -5.6 20 -6.7 92 92 E 5 7 29.92 1013 10 16 0.00 0.00
8:53 pm 20:53 Mostly Cloudy 21 -6.1 19 -7.2 92 92 ENE 3 6 29.92 1013 10 16 0.00 0.00
9:53 pm 21:53 Mostly Cloudy 20 -6.7 17 -8.3 89 89 ESE 5 7 29.93 1014 10 16 0.00 0.00
10:53 pm 22:53 Clear 26 -3.3 21 -6.1 81 81 SW 13 20 29.91 1013 10 16 0.00 0.00
11:53 pm 23:53 Mostly Clear 23 -5 19 -7.2 85 85 SW 14 22 29.92 1013 10 16 0.00 0.00

Powered by AerisWeather